Location: Leiter
(44.7178°N, 106.2687°W)
Time: 14:56:36
(UTC+00:00)

ISS - Visible Passes

Search period start: 24 January 2022 00:00
Search period end: 03 February 2022 00:00
Orbit: 413 x 422 km, 51.6° (Epoch: 24 January)

Date Brightness Start Highest point End Pass type
(mag) Time Alt. Az. Time Alt. Az. Time Alt. Az.
24 Jan -2.4 01:48:18 10° WNW 01:51:16 29° NNW 01:51:34 28° N visible
25 Jan -2.7 01:00:01 10° W 01:03:07 35° NNW 01:05:32 15° NE visible
25 Jan -0.9 02:37:43 10° NW 02:38:27 14° NW 02:38:27 14° NW visible
26 Jan -2.2 01:49:31 10° WNW 01:52:18 24° N 01:52:24 24° N visible
27 Jan -2.2 01:01:15 10° WNW 01:04:06 25° N 01:06:19 14° NE visible
27 Jan -0.9 02:38:34 10° NW 02:39:15 14° NW 02:39:15 14° NW visible
28 Jan -2.3 01:50:28 10° NW 01:53:11 25° N 01:53:11 25° N visible
29 Jan -2.2 01:02:18 10° NW 01:05:05 24° N 01:07:08 14° NE visible
29 Jan -1.1 02:39:10 10° NW 02:40:04 17° NW 02:40:04 17° NW visible
30 Jan -2.8 01:51:08 10° NW 01:54:03 34° N 01:54:03 34° N visible
31 Jan -2.6 01:03:03 10° NW 01:06:01 28° NNE 01:08:06 15° ENE visible
31 Jan -1.3 02:39:43 10° WNW 02:41:02 22° WNW 02:41:02 22° WNW visible
01 Feb -3.8 01:51:39 10° NW 01:54:59 62° NNE 01:55:09 60° NE visible
02 Feb -3.3 01:03:34 10° NW 01:06:48 43° NNE 01:09:22 14° E visible
02 Feb -1.5 02:40:27 10° WNW 02:42:19 25° W 02:42:19 25° W visible
